Lid_Strength_Index
9 9 9 9 8 8 8 8 7 6 6 5 3 1 1 2 2 3 2 3 3 4 3 3 4 3 3 4 4 3 3 3 5 4 3 5 7 7 9 8 9 9 9
10 10 9 9 9 9 9 9 7 7 6 6 5 4 2 1 1 2 2 2 3 3 3 3 3 4 4 3 3 3 4 3 4 4 3 6 7 7 8 9 10 10 10
12 11 11 11 10 10 10 9 9 8 8 8 7 6 5 4 2 1 1 1 1 2 3 3 3 3 4 3 3 3 3 3 3 4 4 8 9 10 12 12 11 12 11
14 13 12 12 11 11 10 10 10 10 10 9 8 8 6 5 4 3 1 1 1 1 1 1 2 2 3 3 3 3 3 4 4 4 5 10 11 14 13 12 15 15 14
15 14 14 13 13 12 11 11 11 11 10 9 9 8 8 7 6 5 3 2 1 2 1 1 1 3 6 4 3 3 3 4 4 5 6 14 14 16 12 13 11 15 16
16 15 14 13 14 14 14 13 13 12 11 10 10 9 9 8 7 7 6 5 3 2 2 1 1 7 8 8 7 7 4 3 4 5 6 9 11 10 13 13 14 16 16
16 15 15 16 16 16 15 15 15 14 13 13 12 11 11 9 8 8 8 6 6 4 3 2 2 1 6 3 6 8 7 7 5 3 6 6 7 11 11 13 14 14 14
17 17 17 17 18 17 16 16 16 15 15 14 13 12 12 11 9 9 9 8 7 7 5 4 2 2 1 2 3 4 4 4 5 5 3 4 5 8 9 9 11 14 17
19 19 19 18 19 18 18 18 17 16 15 16 15 15 14 13 11 10 9 9 9 9 8 6 4 3 3 5 3 4 4 5 5 7 6 6 8 9 9 13 15 14 18
20 19 19 19 19 20 19 18 17 17 16 15 15 13 12 12 10 10 9 9 10 9 8 8 8 7 5 5 4 4 6 5 7 13 8 8 9 10 12 9 12 13 16
19 19 19 19 19 19 19 18 17 17 16 17 15 14 14 13 12 10 9 9 9 9 9 8 8 7 6 6 5 3 4 4 8 10 10 10 11 12 12 10 11 10 13
20 20 21 20 19 19 19 19 18 18 18 17 16 16 14 13 12 10 9 9 8 9 9 8 8 7 7 6 6 5 5 5 9 10 11 13 14 14 13 13 13 14 13
22 22 22 21 20 19 20 20 20 20 20 19 18 18 17 15 14 12 11 10 9 9 8 8 8 8 8 7 7 6 8 6 9 11 11 12 13 13 15 16 16 16 16
24 23 22 22 22 21 20 20 21 21 21 20 19 19 18 17 16 14 13 12 11 10 10 9 8 8 8 8 9 7 7 6 7 9 10 11 13 15 15 15 16 17 17
23 23 23 23 23 22 21 21 20 19 19 19 18 18 18 18 16 14 13 14 13 13 12 12 11 10 10 9 8 7 7 7 9 9 11 14 15 15 15 16 15 16 16
26 25 25 24 24 23 23 22 19 18 16 16 15 15 16 14 13 12 12 11 11 10 11 11 11 10 10 10 9 8 8 9 9 9 11 13 15 15 16 15 15 15 16
27 26 25 25 24 24 24 24 24 21 18 17 16 15 14 14 13 12 11 10 10 10 11 10 10 9 9 9 9 8 9 9 9 10 11 13 14 14 16 15 17 15 16
27 26 26 25 24 24 24 24 24 24 24 23 19 18 16 15 14 13 13 13 12 10 10 10 9 9 8 8 8 8 8 9 9 11 11 12 14 15 16 16 16 16 17
28 27 26 25 25 25 24 24 24 24 24 24 23 20 18 16 16 15 14 16 12 10 9 9 8 8 8 8 7 7 8 9 9 11 12 13 14 14 15 15 16 16 17
28 27 26 27 27 26 26 26 26 25 25 23 22 21 20 20 20 21 19 18 17 10 9 9 8 8 8 8 8 7 8 9 10 12 12 13 13 14 15 16 16 16 17
29 28 28 28 28 27 26 26 25 24 23 23 22 21 17 20 23 23 22 20 19 18 14 9 8 8 8 8 7 8 8 9 11 12 12 13 13 14 14 15 15 16 17
28 28 28 28 26 26 25 25 24 24 24 24 23 22 19 23 23 24 23 22 21 19 17 14 9 8 8 8 8 9 9 10 11 12 12 13 13 14 14 15 16 17 18
27 28 28 27 27 26 25 25 25 25 25 24 24 24 24 24 25 25 24 23 22 21 20 18 15 9 9 9 9 9 10 11 11 12 13 13 14 14 14 15 16 18 19
27 28 29 28 28 27 26 26 25 25 26 26 25 25 26 25 26 26 25 24 24 23 22 21 19 16 10 10 10 10 10 10 11 12 12 13 14 14 14 15 17 18 19
29 29 30 30 30 29 28 28 28 27 27 27 27 27 27 26 26 27 26 25 25 24 23 23 21 20 18 17 11 11 11 12 12 12 12 12 13 14 15 16 17 19 20
30 30 30 31 31 30 31 31 30 30 29 29 28 28 28 27 27 27 27 27 26 25 24 24 23 23 22 19 16 12 12 12 12 12 12 12 13 15 16 18 19 21 21